WZZ95CH LBSF-LEXJ

Flight info

Callsign WZZ95CH
Flight time N/A
Altitude 32000
Route OGOTA T228 UTEKA DCT SMI DCT TUVAR DCT TEBLI DCT ROTAR DCT RONOP DCT GIGUS DCT BALSI DCT GIPNO DCT RUSIT DCT ESIDA DCT LERGA DCT MINSO DCT NARAK DCT AGN DCT DIGPO DCT ERAKI DCT PPN DCT MALOB DCT CEGAM M601 BLV
Aircraft A21N/M-SDE2E3FGHIRWXY/LB1

Departure

Time 2026-05-06 15:01
Airport Sofia Airport (LBSF)

Arrival

Time N/A
Airport Seve Ballesteros-Santander Airport (LEXJ)
Time Latitude Longitude Altitude Speed Heading
2026-05-06 14:46 42.69070 23.40389 1758 ft 0 kts 196°
2026-05-06 14:56 42.69063 23.40386 1758 ft 3 kts 196°
2026-05-06 14:57 42.69032 23.40364 1757 ft 7 kts 239°
2026-05-06 14:57 42.69044 23.40274 1758 ft 12 kts 288°
2026-05-06 14:57 42.69070 23.40152 1758 ft 15 kts 287°
2026-05-06 14:57 42.69104 23.40000 1757 ft 18 kts 286°
2026-05-06 14:58 42.69131 23.39818 1754 ft 21 kts 285°
2026-05-06 14:58 42.69170 23.39617 1755 ft 17 kts 285°
2026-05-06 14:58 42.69232 23.39557 1758 ft 13 kts
2026-05-06 14:58 42.69326 23.39564 1749 ft 14 kts
2026-05-06 14:59 42.69430 23.39574 1758 ft 16 kts
2026-05-06 14:59 42.69544 23.39582 1758 ft 17 kts
2026-05-06 14:59 42.69666 23.39590 1755 ft 18 kts
2026-05-06 14:59 42.69773 23.39663 1754 ft 20 kts 95°
2026-05-06 15:00 42.69757 23.39912 1760 ft 41 kts 95°
2026-05-06 15:00 42.69715 23.40622 1756 ft 110 kts 93°
2026-05-06 15:00 42.69640 23.41907 1759 ft 156 kts 94°
2026-05-06 15:00 42.69537 23.43544 1880 ft 181 kts 96°
2026-05-06 15:01 42.69449 23.45210 2562 ft 176 kts 91°
2026-05-06 15:01 42.69420 23.46909 3033 ft 183 kts 91°
2026-05-06 15:01 42.69354 23.48694 3421 ft 196 kts 92°
2026-05-06 15:01 42.69268 23.50580 3825 ft 208 kts 94°
2026-05-06 15:02 42.69169 23.52623 4256 ft 222 kts 95°
2026-05-06 15:02 42.69080 23.54800 4714 ft 238 kts 92°
2026-05-06 15:02 42.69440 23.57099 4954 ft 264 kts 64°
2026-05-06 15:02 42.70659 23.59024 5470 ft 278 kts 34°
2026-05-06 15:03 42.72472 23.59907 6188 ft 282 kts
2026-05-06 15:03 42.74394 23.59482 6924 ft 281 kts 337°
2026-05-06 15:03 42.76171 23.58370 7675 ft 283 kts 333°
2026-05-06 15:03 42.77953 23.57195 8418 ft 286 kts 333°
2026-05-06 15:04 42.79765 23.56036 9156 ft 288 kts 333°
2026-05-06 15:04 42.81598 23.54891 9847 ft 292 kts 334°
2026-05-06 15:04 42.83444 23.53760 10373 ft 301 kts 334°
2026-05-06 15:04 42.85446 23.52548 10672 ft 319 kts 335°
2026-05-06 15:05 42.87542 23.51358 10930 ft 337 kts 336°
2026-05-06 15:05 42.89773 23.50122 11179 ft 354 kts 336°
2026-05-06 15:05 42.92085 23.48851 11663 ft 362 kts 336°
2026-05-06 15:05 42.94405 23.47580 12277 ft 365 kts 336°
2026-05-06 15:06 42.96806 23.46257 12972 ft 368 kts 336°
2026-05-06 15:06 42.99157 23.44971 13653 ft 371 kts 336°
2026-05-06 15:06 43.01590 23.43635 14279 ft 372 kts 336°
2026-05-06 15:06 43.03997 23.42311 14885 ft 374 kts 336°
2026-05-06 15:07 43.06395 23.41005 15480 ft 376 kts 336°
2026-05-06 15:07 43.08831 23.39667 16062 ft 379 kts 336°
2026-05-06 15:07 43.11279 23.38310 16648 ft 381 kts 336°
2026-05-06 15:07 43.13746 23.36941 17241 ft 384 kts 336°
2026-05-06 15:08 43.16255 23.35547 17815 ft 387 kts 337°
2026-05-06 15:08 43.18729 23.34173 18360 ft 389 kts 337°
2026-05-06 15:08 43.21202 23.32554 18845 ft 391 kts 327°
2026-05-06 15:08 43.23339 23.30246 19331 ft 392 kts 316°
2026-05-06 15:09 43.25311 23.27648 19831 ft 394 kts 315°
2026-05-06 15:09 43.27266 23.25016 20297 ft 396 kts 315°
2026-05-06 15:09 43.29243 23.22364 20771 ft 398 kts 315°
2026-05-06 15:09 43.31240 23.19702 21219 ft 401 kts 315°
2026-05-06 15:10 43.33252 23.17037 21673 ft 403 kts 315°
2026-05-06 15:10 43.35281 23.14339 22121 ft 406 kts 315°
2026-05-06 15:10 43.37311 23.11634 22572 ft 408 kts 315°
2026-05-06 15:10 43.39355 23.08918 23007 ft 410 kts 315°
2026-05-06 15:11 43.41392 23.06225 23443 ft 412 kts 316°
2026-05-06 15:11 43.43460 23.03484 23821 ft 414 kts 315°
2026-05-06 15:11 43.45538 23.00718 24149 ft 417 kts 315°
2026-05-06 15:11 43.47634 22.97930 24484 ft 420 kts 315°
2026-05-06 15:12 43.49735 22.95133 24831 ft 422 kts 315°
2026-05-06 15:12 43.51846 22.92317 25194 ft 423 kts 315°
2026-05-06 15:12 43.53963 22.89488 25561 ft 425 kts 315°
2026-05-06 15:12 43.56085 22.86644 25918 ft 426 kts 315°
2026-05-06 15:13 43.58216 22.83790 26276 ft 427 kts 315°
2026-05-06 15:13 43.60351 22.80934 26626 ft 429 kts 315°
2026-05-06 15:13 43.62490 22.78064 26961 ft 430 kts 314°
2026-05-06 15:13 43.64634 22.75179 27269 ft 433 kts 314°